Regional Weather Roundup
Issued by NWS

Home | Current Version | Previous Version | Text Only | Print | Product List | Glossary On
Versions: 1 2 3 4 5 6 7 8 9 10 11 12 13 14 15 16 17 18 19 20 21 22 23 24 25 26 27 28 29 30 31 32 33 34 35 36 37 38 39 40 41 42 43 44 45 46 47 48 49 50
000
ASUS43 KMKX 241800
RWRWI

WISCONSIN REGIONAL WEATHER ROUNDUP
NATIONAL WEATHER SERVICE MILWAUKEE/SULLIVAN WI
100 PM CDT THU APR 24 2014

NOTE: "FAIR" INDICATES FEW OR NO CLOUDS BELOW 12,000 FEET WITH NO
SIGNIFICANT WEATHER AND/OR OBSTRUCTIONS TO VISIBILITY.

WIZ001-002-006>008-014>016-023>028-241900-
NORTHWEST WISCONSIN

CITY           SKY/WX    TMP DP  RH WIND       PRES   REMARKS
SUPERIOR ARPT  RAIN      33  33  99 NE9G16    29.87F WCI  26
ASHLAND        LGT RAIN  37  36  96 NE10      29.90F FOG     WCI  30
6HR MIN TEMP:  36; 6HR MAX TEMP:  38; 6HR PCP:  0.17;

HAYWARD        LGT RAIN  36  35  96 E9        29.82F FOG     WCI  29
6HR MIN TEMP:  35; 6HR MAX TEMP:  37; 6HR PCP:  0.20;

SIREN          RAIN      39  38  97 E6        29.78F WCI  35
RICE LAKE      LGT RAIN  40  38  93 E10       29.79F WCI  34
LADYSMITH      LGT RAIN  39  37  93 E12       29.84F WCI  32
EAU CLAIRE     NOT AVBL
MENOMONIE      DRIZZLE   41  41  99 E9        29.76F
NEW RICHMOND   DRIZZLE   40  40  99 E10       29.74F WCI  34
OSCEOLA        DRIZZLE   41  41  99 E8        29.78F
$$

WIZ003>005-009-010-017-018-241900-
NORTH CENTRAL WISCONSIN

CITY           SKY/WX    TMP DP  RH WIND       PRES   REMARKS
WOODRUFF       LGT SNOW  37  34  90 SE13G20   29.91F WCI  28
RHINELANDER    LGT SNOW  33  32  96 E14       29.91F FOG     WCI  23
6HR MIN TEMP:  32; 6HR MAX TEMP:  36; 6HR PCP:  0.06;

EAGLE RIVER    MIX PCPN  35  34  97 SE9       29.93F WCI  28
LAND O LAKES   LGT SNOW  36  34  92 E8        29.94F WCI  30
PHILLIPS       RAIN      34  33  94 SE13      29.87S WCI  25
TOMAHAWK       RAIN      34  32  94 SE6       29.89F WCI  29
MEDFORD        LGT RAIN  37  35  93 E15G23    29.83F WCI  28
MERRILL        RAIN      37  36  95 E12G21    29.89F WCI  30
$$

WIZ029-030-035-036-043>047-241900-
CENTRAL WISCONSIN

CITY           SKY/WX    TMP DP  RH WIND       PRES   REMARKS
WAUSAU         LGT RAIN  38  36  92 E16       29.86F WCI  29
6HR MIN TEMP:  36; 6HR MAX TEMP:  39; 6HR PCP:  0.26;

MOSINEE        LGT RAIN  39  39 100 E12G20    29.89F WCI  32
MARSHFIELD     LGT RAIN  41  38  89 E20G28    29.80F FOG
6HR MIN TEMP:  36; 6HR MAX TEMP:  41; 6HR PCP:  0.27;

STEVENS POINT  LGT RAIN  39  37  93 E13G20    29.89S WCI  32
WAUPACA        CLOUDY    45  39  81 E15G21    29.91F
WAUTOMA        NOT AVBL
WISC RAPIDS    LGT RAIN  43  39  86 SE16G24   29.85F FOG
6HR MIN TEMP:  36; 6HR MAX TEMP:  43; 6HR PCP:  0.32;

CAMP DOUGLAS   NOT AVBL
$$

WIZ011>013-019>022-031-037>040-048>050-241900-
NORTHEAST WISCONSIN

CITY           SKY/WX    TMP DP  RH WIND       PRES   REMARKS
ANTIGO         MIX PCPN  33  32  97 SE13      29.93F WCI  23
STURGEON BAY   CLOUDY    37  34  87 E7        30.01F WCI  32
6HR MIN TEMP:  37; 6HR MAX TEMP:  39; 6HR PCP:  0.09;

GREEN BAY      LGT RAIN  43  40  89 E13       29.96F
6HR MIN TEMP:  39; 6HR MAX TEMP:  43; 6HR PCP:  0.24;

MANITOWOC      NOT AVBL
APPLETON       CLOUDY    43  37  81 E9G17     29.93F
CLINTONVILLE   LGT RAIN  39  37  93 E8        29.94F WCI  34
OSHKOSH        CLOUDY    45  36  70 E9        29.91F
6HR MIN TEMP:  41; 6HR MAX TEMP:  45; 6HR PCP:  0.10;

$$

WIZ032>034-041-042-053>061-241900-
SOUTHWEST WISCONSIN

CITY           SKY/WX    TMP DP  RH WIND       PRES   REMARKS
LA CROSSE      LGT RAIN  44  40  85 SE8       29.73F FOG
6HR MIN TEMP:  40; 6HR MAX TEMP:  44; 6HR PCP:  0.90;

SPARTA         LGT RAIN  42  40  93 E12G18    29.77F
VIROQUA        CLOUDY    42  42  99 E17       29.72F
BOSCOBEL       LGT RAIN  50  44  80 E7        29.74F
6HR MIN TEMP:  40; 6HR MAX TEMP:  50; 6HR PCP:  0.11;

PRAIRIE DU CHI LGT RAIN  50  44  81 E7        29.72F
PLATTEVILLE    CLOUDY    54  43  66 SE10      29.77S
$$

WIZ056-057-062-063-064-067-068-241900-
SOUTH CENTRAL WISCONSIN

CITY           SKY/WX    TMP DP  RH WIND       PRES   REMARKS
BARABOO/DELLS  RAIN      44  38  79 E12       29.80F
LONE ROCK      NOT AVBL
WATERTOWN      CLOUDY    51  38  61 E16G23    29.84F
MADISON        LGT RAIN  50  43  77 SE13      29.79F
6HR MIN TEMP:  40; 6HR MAX TEMP:  51; 6HR PCP:  0.01;

MIDDLETON      CLOUDY    53  40  62 E14       29.79F
MONROE         CLOUDY    57  42  55 SE21G31   29.77F
6HR MIN TEMP:  40; 6HR MAX TEMP:  57;

JANESVILLE     CLOUDY    63  37  39 SE23G31   29.80F
$$

WIZ051-052-058>065-066-070>072-241900-
SOUTHEAST WISCONSIN

CITY           SKY/WX    TMP DP  RH WIND       PRES   REMARKS
MILWAUKEE      CLOUDY    48  35  60 SE20G28   29.91F
6HR MIN TEMP:  37; 6HR MAX TEMP:  50;

WAUKESHA       CLOUDY    52  34  50 SE24G30   29.89F
MILWAUKEE/TIMM NOT AVBL
RACINE         PTSUNNY   50  35  56 SE18G28   29.92F
6HR MIN TEMP:  39; 6HR MAX TEMP:  51;

BURLINGTON     PTSUNNY   56  38  49 SE18G24   29.86F
KENOSHA        PTSUNNY   55  34  45 SE17G28   29.89F
6HR MIN TEMP:  39; 6HR MAX TEMP:  57;

FOND DU LAC    CLOUDY    47  35  63 SE15G26   29.90F
6HR MIN TEMP:  39; 6HR MAX TEMP:  47; 6HR PCP:  0.05;

SHEBOYGAN      CLOUDY    43  35  73 E12       29.95F
6HR MIN TEMP:  40; 6HR MAX TEMP:  43; 6HR PCP:  0.05;

WEST BEND      CLOUDY    45  34  65 SE12G21   29.91F
JUNEAU         CLOUDY    48  34  58 E15G22    29.87F
$$

LSZ147-162-241900-
LAKE SUPERIOR

STATION/POSITION TIME  TEMP    WIND        PRES    WAVE
                       AIR SEA DIR/SP/G            HT/PER
                 (UTC) (F)     (DEG/KT/KT) (MB)    (FT/S)
DEVILS ISLAND    1700   36      90/ 17/ 18 1015.3F
PORT WING        1700   38      70/  6/  9 1013.2
SAXON HARBOR     1700           60/  2/  7 1013.5
$$

LMZ867-665-643>646-241900-
LAKE MICHIGAN

STATION/POSITION TIME  TEMP    WIND        PRES    WAVE
                       AIR SEA DIR/SP/G            HT/PER
                 (UTC) (F)     (DEG/KT/KT) (MB)    (FT/S)
NORTHPORT PIER   1700   36     130/  3/  4 1017.9F
SISTER BAY       1723   42     170/  9/ 11   N/A
KEWAUNEE LAKESHO 1700   36      80/  5/  7 1017.7F
SHEBOYGAN LAKESH 1700   40     100/ 21/ 22 1015.5F
PORT WASHINGTON  1700   40     100/ 13/ 17 1015.2
MILWAUKEE LAKESH 1700   41     110/ 15/ 16   N/A
KENOSHA   LAKESH 1700   44     130/ 15/ 18   N/A
$$

TC  - TEMPERATURE IN CELSIUS
VSB - VISIBILITY IN STATUTE MILES
WCI - WIND CHILL INDEX
HX  - HEAT INDEX




USA.gov is the U.S. government's official web portal to all federal, state and local government web resources and services.